| time (UTC) | temp F | wind direction | speed MPH | gust MPH | rain 1hr in | rain 24hr in | rain mn in | humidity % | barometer mb |
| 20260506001504 | 76 | 193 | 1.0 | 10.0 | 0.00 | 0.00 | 0.00 | 24 | 1007.8 |
| 20260506000003 | 76 | 251 | 3.0 | 9.0 | 0.00 | 0.00 | 0.00 | 23 | 1007.8 |
| 20260505234503 | 77 | 219 | 3.0 | 9.0 | 0.00 | 0.00 | 0.00 | 22 | 1007.6 |
| 20260505233059 | 78 | 238 | 1.0 | 12.0 | 0.00 | 0.00 | 0.00 | 20 | 1007.6 |
| 20260505231557 | 79 | 243 | 9.0 | 15.0 | 0.00 | 0.00 | 0.00 | 18 | 1007.7 |
| 20260505230055 | 80 | 272 | 9.0 | 16.0 | 0.00 | 0.00 | 0.00 | 16 | 1007.9 |
| 20260505224554 | 80 | 236 | 5.0 | 13.0 | 0.00 | 0.00 | 0.00 | 19 | 1007.7 |
| 20260505223104 | 81 | 180 | 4.0 | 14.0 | 0.00 | 0.00 | 0.00 | 18 | 1007.6 |
| 20260505221549 | 81 | 176 | 8.0 | 20.0 | 0.00 | 0.00 | 0.00 | 17 | 1007.7 |
| 20260505220148 | 81 | 246 | 12.0 | 20.0 | 0.00 | 0.00 | 0.00 | 16 | 1007.7 |
| 20260505214553 | 81 | 215 | 7.0 | 19.0 | 0.00 | 0.00 | 0.00 | 17 | 1007.7 |
| 20260505213043 | 82 | 233 | 7.0 | 16.0 | 0.00 | 0.00 | 0.00 | 18 | 1007.5 |
| 20260505211548 | 83 | 252 | 7.0 | 22.0 | 0.00 | 0.00 | 0.00 | 18 | 1007.4 |
| 20260505210038 | 83 | 238 | 7.0 | 19.0 | 0.00 | 0.00 | 0.00 | 18 | 1007.3 |
| 20260505204537 | 82 | 219 | 10.0 | 22.0 | 0.00 | 0.00 | 0.00 | 17 | 1007.5 |
| 20260505203046 | 82 | 240 | 12.0 | 21.0 | 0.00 | 0.00 | 0.00 | 15 | 1007.4 |
| 20260505201529 | 82 | 235 | 9.0 | 23.0 | 0.00 | 0.00 | 0.00 | 17 | 1007.5 |
| 20260505200025 | 82 | 229 | 9.0 | 20.0 | 0.00 | 0.00 | 0.00 | 16 | 1007.6 |
| 20260505194523 | 83 | 255 | 9.0 | 24.0 | 0.00 | 0.00 | 0.00 | 16 | 1007.7 |
| 20260505193020 | 83 | 249 | 8.0 | 24.0 | 0.00 | 0.00 | 0.00 | 15 | 1007.6 |
| 20260505191517 | 83 | 199 | 12.0 | 21.0 | 0.00 | 0.00 | 0.00 | 15 | 1008.0 |
| 20260505190014 | 82 | 187 | 12.0 | 22.0 | 0.00 | 0.00 | 0.00 | 16 | 1008.3 |
| 20260505184516 | 83 | 240 | 9.0 | 24.0 | 0.00 | 0.00 | 0.00 | 17 | 1008.4 |
| 20260505183005 | 82 | 237 | 10.0 | 20.0 | 0.00 | 0.00 | 0.00 | 19 | 1008.6 |
| 20260505181502 | 82 | 221 | 6.0 | 15.0 | 0.00 | 0.00 | 0.00 | 22 | 1008.8 |
| 20260505180109 | 82 | 215 | 9.0 | 19.0 | 0.00 | 0.00 | 0.00 | 22 | 1009.1 |
| 20260505174554 | 81 | 242 | 9.0 | 20.0 | 0.00 | 0.00 | 0.00 | 24 | 1009.1 |
| 20260505173052 | 81 | 257 | 8.0 | 17.0 | 0.00 | 0.00 | 0.00 | 25 | 1009.1 |
| 20260505171548 | 81 | 229 | 9.0 | 17.0 | 0.00 | 0.00 | 0.00 | 25 | 1009.3 |
| 20260505170045 | 80 | 217 | 4.0 | 15.0 | 0.00 | 0.00 | 0.00 | 26 | 1009.5 |
| 20260505164543 | 80 | 229 | 6.0 | 14.0 | 0.00 | 0.00 | 0.00 | 25 | 1009.7 |
| 20260505163039 | 80 | 281 | 6.0 | 14.0 | 0.00 | 0.00 | 0.00 | 27 | 1009.9 |
| 20260505161538 | 78 | 269 | 7.0 | 11.0 | 0.00 | 0.00 | 0.00 | 26 | 1010.1 |
| 20260505153025 | 77 | 286 | 4.0 | 11.0 | 0.00 | 0.00 | 0.00 | 28 | 1010.6 |
| 20260505151524 | 76 | 212 | 3.0 | 13.0 | 0.00 | 0.00 | 0.00 | 28 | 1010.6 |
| 20260505140113 | 71 | 199 | 5.0 | 9.0 | 0.00 | 0.00 | 0.00 | 36 | 1010.8 |
| 20260505124534 | 65 | 286 | 1.0 | 4.0 | 0.00 | 0.00 | 0.00 | 43 | 1011.1 |
| 20260505123026 | 63 | 290 | 2.0 | 5.0 | 0.00 | 0.00 | 0.00 | 44 | 1011.1 |
| 20260505121521 | 62 | 274 | 1.0 | 7.0 | 0.00 | 0.00 | 0.00 | 46 | 1011.2 |
| 20260505120018 | 61 | 259 | 1.0 | 5.0 | 0.00 | 0.00 | 0.00 | 46 | 1011.1 |
| 20260505114513 | 61 | 269 | 3.0 | 8.0 | 0.00 | 0.00 | 0.00 | 46 | 1011.0 |
| 20260505113009 | 61 | 262 | 0.0 | 6.0 | 0.00 | 0.00 | 0.00 | 47 | 1010.9 |
| 20260505111510 | 60 | 238 | 2.0 | 7.0 | 0.00 | 0.00 | 0.00 | 47 | 1010.6 |
| 20260505101555 | 59 | 248 | 1.0 | 9.0 | 0.00 | 0.00 | 0.00 | 48 | 1010.1 |
| 20260505100049 | 59 | 203 | 2.0 | 8.0 | 0.00 | 0.00 | 0.00 | 49 | 1010.1 |
| 20260505094555 | 59 | 231 | 2.0 | 8.0 | 0.00 | 0.00 | 0.00 | 49 | 1010.1 |
| 20260505093052 | 59 | 231 | 2.0 | 9.0 | 0.00 | 0.00 | 0.00 | 49 | 1009.9 |
| 20260505091541 | 59 | 282 | 2.0 | 6.0 | 0.00 | 0.00 | 0.00 | 49 | 1009.9 |
| 20260505090037 | 59 | 257 | 3.0 | 8.0 | 0.00 | 0.00 | 0.00 | 49 | 1009.8 |
| 20260505084536 | 59 | 221 | 2.0 | 7.0 | 0.00 | 0.00 | 0.00 | 49 | 1009.8 |
| 20260505083016 | 60 | 224 | 0.0 | 9.0 | 0.00 | 0.00 | 0.00 | 49 | 1009.7 |
| 20260505081514 | 60 | 276 | 1.0 | 9.0 | 0.00 | 0.00 | 0.00 | 49 | 1009.7 |
| 20260505080023 | 60 | 234 | 4.0 | 11.0 | 0.00 | 0.00 | 0.00 | 49 | 1009.5 |
| 20260505074509 | 60 | 248 | 3.0 | 7.0 | 0.00 | 0.00 | 0.00 | 51 | 1009.6 |
| 20260505073006 | 60 | 246 | 0.0 | 7.0 | 0.00 | 0.00 | 0.00 | 51 | 1009.4 |
| 20260505071503 | 59 | 234 | 2.0 | 7.0 | 0.00 | 0.00 | 0.00 | 52 | 1009.4 |
| 20260505070002 | 58 | 215 | 0.0 | 6.0 | 0.00 | 0.00 | 0.00 | 55 | 1009.4 |
| 20260505064559 | 56 | 230 | 0.0 | 1.0 | 0.00 | 0.00 | 0.00 | 57 | 1009.3 |
| 20260505063057 | 57 | 246 | 0.0 | 2.0 | 0.00 | 0.00 | 0.00 | 56 | 1009.2 |
| 20260505061613 | 57 | 224 | 0.0 | 2.0 | 0.00 | 0.00 | 0.00 | 56 | 1009.2 |
| 20260505060057 | 56 | 258 | 0.0 | 0.0 | 0.00 | 0.00 | 0.00 | 58 | 1009.3 |
| 20260505054555 | 56 | 257 | 0.0 | 0.0 | 0.00 | 0.00 | 0.00 | 57 | 1009.3 |
| 20260505053045 | 58 | 257 | 0.0 | 0.0 | 0.00 | 0.00 | 0.00 | 56 | 1009.3 |
| 20260505051542 | 58 | 217 | 0.0 | 0.0 | 0.00 | 0.00 | 0.00 | 56 | 1009.4 |
| 20260505041531 | 59 | 238 | 0.0 | 0.0 | 0.00 | 0.00 | 0.00 | 54 | 1009.3 |
| 20260505040037 | 60 | 238 | 0.0 | 0.0 | 0.00 | 0.00 | 0.00 | 52 | 1009.3 |
| 20260505034535 | 62 | 238 | 0.0 | 0.0 | 0.00 | 0.00 | 0.00 | 50 | 1009.6 |
| 20260505033022 | 63 | 254 | 0.0 | 0.0 | 0.00 | 0.00 | 0.00 | 48 | 1009.5 |
| 20260505031523 | 63 | 264 | 0.0 | 1.0 | 0.00 | 0.00 | 0.00 | 47 | 1009.6 |
| 20260505030020 | 64 | 219 | 0.0 | 1.0 | 0.00 | 0.00 | 0.00 | 45 | 1009.5 |
| 20260505024519 | 65 | 240 | 0.0 | 2.0 | 0.00 | 0.00 | 0.00 | 44 | 1009.5 |
| 20260505023016 | 66 | 264 | 0.0 | 4.0 | 0.00 | 0.00 | 0.00 | 42 | 1009.4 |
| 20260505021515 | 67 | 259 | 0.0 | 5.0 | 0.00 | 0.00 | 0.00 | 41 | 1009.3 |
| 20260505020015 | 68 | 236 | 0.0 | 7.0 | 0.00 | 0.00 | 0.00 | 39 | 1009.3 |
| 20260505014514 | 68 | 251 | 3.0 | 10.0 | 0.00 | 0.00 | 0.00 | 38 | 1009.2 |
| 20260505013007 | 69 | 226 | 0.0 | 7.0 | 0.00 | 0.00 | 0.00 | 36 | 1009.0 |
| 20260505011506 | 69 | 207 | 2.0 | 9.0 | 0.00 | 0.00 | 0.00 | 35 | 1008.9 |
| 20260505010005 | 70 | 265 | 0.0 | 4.0 | 0.00 | 0.00 | 0.00 | 33 | 1008.7 |
| 20260505004506 | 71 | 272 | 2.0 | 8.0 | 0.00 | 0.00 | 0.00 | 32 | 1008.6 |
| 20260505003059 | 71 | 264 | 2.0 | 7.0 | 0.00 | 0.00 | 0.00 | 31 | 1008.5 |